This demonstration page uses our WeatherBlox Daily Observations layout. Learn more.

Hourly Observations for June 18, 2015

Temp ( °F °C ) Dew Point ( °F °C ) Humidity (%) Winds ( mph kmh ) Pressure ( in mb ) Visibility ( mi km ) Precip ( " mm )
12:15 am 00:15 Clear 68 20 64 18 88 88 E 5 7 29.94 1014 10 16.09344 0 0
12:35 am 00:35 Clear 68 20 66 19 94 94 E 5 7 29.94 1014 10 16.09344 0 0
12:55 am 00:55 Clear 68 20 64 18 88 88 E 6 9 29.91 1013 10 16.09344 0 0
1:15 am 01:15 Clear 68 20 64 18 88 88 E 6 9 29.91 1013 10 16.09344 0 0
1:35 am 01:35 Clear 68 20 64 18 88 88 E 5 7 29.94 1014 10 16.09344 0 0
1:55 am 01:55 Clear 68 20 64 18 88 88 E 6 9 29.91 1013 10 16.09344 0 0
2:15 am 02:15 Partly Cloudy 68 20 64 18 88 88 E 5 7 29.91 1013 10 16.09344 0 0
2:35 am 02:35 Mostly Cloudy 68 20 64 18 88 88 E 5 7 29.91 1013 10 16.09344 0 0
2:55 am 02:55 Partly Cloudy 66 19 64 18 94 94 E 3 6 29.94 1014 10 16.09344 0 0
3:15 am 03:15 Clear 66 19 64 18 94 94 E 5 7 29.94 1014 7 11.265408 0 0
3:35 am 03:35 Clear 66 19 64 18 94 94 ESE 5 7 29.91 1013 7 11.265408 0 0
3:55 am 03:55 Clear 66 19 64 18 94 94 ESE 7 11 29.91 1013 7 11.265408 0 0
4:15 am 04:15 Clear 66 19 64 18 94 94 ESE 7 11 29.91 1013 7 11.265408 0 0
4:35 am 04:35 Clear 66 19 64 18 94 94 ESE 7 11 29.91 1013 7 11.265408 0 0
4:55 am 04:55 Clear 66 19 64 18 94 94 SE 6 9 29.91 1013 10 16.09344 0 0
5:15 am 05:15 Clear 66 19 63 17 88 88 SE 6 9 29.91 1013 10 16.09344 0 0
5:35 am 05:35 Clear 66 19 63 17 88 88 SE 5 7 29.91 1013 10 16.09344 0 0
5:55 am 05:55 Clear 66 19 63 17 88 88 SSE 6 9 29.91 1013 10 16.09344 0 0
6:15 am 06:15 Sunny 64 18 63 17 94 94 Calm 29.91 1013 10 16.09344 0 0
6:35 am 06:35 Sunny 66 19 63 17 88 88 NNW 7 11 29.97 1015 10 16.09344 0 0
6:55 am 06:55 Mostly Cloudy with Nearby Thunderstorms 66 19 63 17 88 88 N 30 48 30.03 1017 10 16.09344 0 0
7:15 am 07:15 Cloudy with Heavy Thunderstorms 61 16 59 15 94 94 NNW 16 26 30.06 1018 2.5 4.02336 0.24 6.096
7:35 am 07:35 Cloudy with Thunderstorms 61 16 59 15 94 94 N 12 19 30.06 1018 7 11.265408 0.38 9.652
7:55 am 07:55 Cloudy 63 17 59 15 88 88 NE 13 20 30.03 1017 10 16.09344 0.39 9.906
8:15 am 08:15 Cloudy with Light Rain 61 16 59 15 94 94 ENE 18 30 30 1016 10 16.09344 0.02 0.508
8:35 am 08:35 Cloudy with Light Rain 63 17 59 15 88 88 NE 14 22 30 1016 10 16.09344 0.02 0.508
8:55 am 08:55 Cloudy with Light Rain 63 17 59 15 88 88 E 10 17 29.97 1015 10 16.09344 0.03 0.762
9:15 am 09:15 Mostly Cloudy 63 17 59 15 88 88 SE 14 22 29.91 1013 10 16.09344 0.01 0.254
9:35 am 09:35 Partly Cloudy 63 17 59 15 88 88 SE 13 20 29.91 1013 10 16.09344 0.01 0.254
9:55 am 09:55 Sunny 63 17 59 15 88 88 SE 7 11 29.94 1014 10 16.09344 0.01 0.254
10:15 am 10:15 Sunny 63 17 61 16 94 94 SW 3 6 29.97 1015 10 16.09344 0 0
10:35 am 10:35 Mostly Cloudy 64 18 61 16 88 88 NNW 7 11 30 1016 10 16.09344 0 0
10:55 am 10:55 Cloudy 64 18 61 16 88 88 N 8 13 30 1016 10 16.09344 0 0
11:15 am 11:15 Mostly Cloudy 64 18 61 16 88 88 NNW 8 13 30 1016 10 16.09344 0 0
11:35 am 11:35 Mostly Cloudy 66 19 61 16 83 83 NNW 9 15 30 1016 10 16.09344 0 0
11:55 am 11:55 Mostly Cloudy 68 20 61 16 78 78 N 9 15 30.03 1017 10 16.09344 0 0
12:15 pm 12:15 undefined 68 20 61 16 78 78 N 9 15 30.03 1017 10 16.09344 0 0
12:35 pm 12:35 Mostly Cloudy 68 20 61 16 78 78 NNW 10 17 30.03 1017 10 16.09344 0 0
12:55 pm 12:55 Mostly Cloudy 70 21 61 16 73 73 N 12 19 30 1016 10 16.09344 0 0
1:15 pm 13:15 Cloudy 70 21 61 16 73 73 NNW 13 20 30 1016 10 16.09344 0 0
1:35 pm 13:35 Mostly Cloudy 70 21 63 17 78 78 N 12 19 30 1016 10 16.09344 0 0
1:55 pm 13:55 Mostly Cloudy 72 22 63 17 73 73 N 10 17 29.97 1015 10 16.09344 0 0
2:15 pm 14:15 Mostly Cloudy 72 22 63 17 73 73 N 14 22 29.97 1015 10 16.09344 0 0
2:35 pm 14:35 Cloudy 72 22 63 17 73 73 NNE 13 20 29.97 1015 10 16.09344 0 0
2:55 pm 14:55 Cloudy 72 22 63 17 73 73 N 14 22 29.97 1015 10 16.09344 0 0
3:15 pm 15:15 Mostly Cloudy 70 21 63 17 78 78 NNE 14 22 29.97 1015 10 16.09344 0 0
3:35 pm 15:35 Mostly Cloudy 72 22 61 16 69 69 NNE 13 20 29.97 1015 10 16.09344 0 0
3:55 pm 15:55 Cloudy 72 22 61 16 69 69 NNE 10 17 29.97 1015 10 16.09344 0 0
4:15 pm 16:15 Cloudy 70 21 61 16 73 73 NE 13 20 29.97 1015 10 16.09344 0 0
4:35 pm 16:35 Cloudy 70 21 61 16 73 73 NE 10 17 29.97 1015 10 16.09344 0 0
4:55 pm 16:55 Cloudy 70 21 61 16 73 73 NE 10 17 29.97 1015 10 16.09344 0 0
5:15 pm 17:15 Cloudy 70 21 63 17 78 78 NE 12 19 30 1016 10 16.09344 0 0
5:35 pm 17:35 Cloudy 70 21 63 17 78 78 NNE 13 20 30 1016 10 16.09344 0 0
5:55 pm 17:55 Cloudy 70 21 61 16 73 73 NE 14 22 30 1016 10 16.09344 0 0
6:15 pm 18:15 Cloudy 70 21 61 16 73 73 NE 15 24 29.97 1015 10 16.09344 0 0
6:35 pm 18:35 Mostly Cloudy 72 22 61 16 69 69 NE 13 20 29.97 1015 10 16.09344 0 0
6:55 pm 18:55 Cloudy 70 21 63 17 78 78 NE 14 22 29.97 1015 10 16.09344 0 0
7:15 pm 19:15 Mostly Cloudy 70 21 61 16 73 73 NE 14 22 29.97 1015 10 16.09344 0 0
7:35 pm 19:35 Partly Cloudy 68 20 61 16 78 78 NE 9 15 30 1016 10 16.09344 0 0
7:55 pm 19:55 Partly Cloudy 68 20 61 16 78 78 ENE 10 17 30 1016 10 16.09344 0 0
8:15 pm 20:15 Sunny 68 20 61 16 78 78 ENE 10 17 30 1016 10 16.09344 0 0
8:35 pm 20:35 Sunny 66 19 61 16 83 83 ENE 7 11 30 1016 10 16.09344 0 0
8:55 pm 20:55 Sunny 66 19 61 16 83 83 ENE 5 7 30.03 1017 10 16.09344 0 0
9:15 pm 21:15 Clear 64 18 61 16 88 88 E 5 7 30.03 1017 10 16.09344 0 0
9:35 pm 21:35 Clear 63 17 59 15 88 88 ENE 6 9 30.03 1017 10 16.09344 0 0
9:55 pm 21:55 Clear 63 17 59 15 88 88 ENE 3 6 30.03 1017 10 16.09344 0 0
10:15 pm 22:15 Clear 63 17 61 16 94 94 ENE 3 6 30.09 1019 10 16.09344 0 0
10:35 pm 22:35 Clear 63 17 59 15 88 88 ENE 5 7 30.09 1019 10 16.09344 0 0
10:55 pm 22:55 Clear 61 16 59 15 94 94 NE 6 9 30.09 1019 10 16.09344 0 0
11:15 pm 23:15 Clear 61 16 59 15 94 94 ENE 5 7 30.09 1019 10 16.09344 0 0
11:35 pm 23:35 Clear 61 16 59 15 94 94 E 6 9 30.09 1019 10 16.09344 0 0
11:55 pm 23:55 Clear 61 16 59 15 94 94 E 8 13 30.09 1019 10 16.09344 0 0

Powered by AerisWeather